Weather reports worldwide

Advertisment
Le Touquet, France (7003): temperature & dewpoint: 31.05.2020 17:00:00 - 06.06.2020 17:00:00 (CEST)Le Touquet, France (7003): temperature 5cm: 31.05.2020 17:00:00 - 06.06.2020 17:00:00 (CEST)Le Touquet, France (7003): wind speed & gusts: 31.05.2020 17:00:00 - 06.06.2020 17:00:00 (CEST)Le Touquet, France (7003): wind direction: 31.05.2020 17:00:00 - 06.06.2020 17:00:00 (CEST)Le Touquet, France (7003): reduced air pressure: 31.05.2020 17:00:00 - 06.06.2020 17:00:00 (CEST)Le Touquet, France (7003): visibility: 31.05.2020 17:00:00 - 06.06.2020 17:00:00 (CEST)Le Touquet, France (7003): sunshine duration: 31.05.2020 17:00:00 - 06.06.2020 17:00:00 (CEST)Le Touquet, France (7003): precipitation: 31.05.2020 17:00:00 - 06.06.2020 17:00:00 (CEST)
Date & Time tt [°C] td [°C] tt 5cm [°C] ff [km/h] ff [kn] fx [km/h] fx [kn] dd ppp [hPa] vv [km] sd [min] rr [mm]
06.06.2020 17:00:00 12,8 5,9 13,9 36 19 67 36 WSW 1002,5 19 3 0,0
06.06.2020 16:00:00 13,5 5,6 16,6 30 16 67 36 WSW 1002,6 20 49 0,0
06.06.2020 15:00:00 13,6 5,0 14,7 35 19 59 32 WSW 1002,5 19 40 0,0
06.06.2020 14:00:00 13,0 5,4 14,9 29 16 62 34 WSW 1002,5 18 31 0,0
06.06.2020 13:00:00 13,0 4,7 14,9 31 17 61 33 W 1002,1 20 45 0,0
06.06.2020 12:00:00 13,1 4,5 14,8 32 18 58 31 WSW 1001,7 20 44 0,0
06.06.2020 11:00:00 13,1 4,5 14,7 27 15 69 37 W 1001,3 20 56 0,0
06.06.2020 10:00:00 12,2 5,1 12,4 23 12 47 25 W 1001,1 20 41 0,0
06.06.2020 09:00:00 12,2 4,4 12,2 24 13 42 23 WNW 1000,9 18 51 0,0
06.06.2020 08:00:00 11,4 3,7 11,3 20 11 35 19 WNW 1000,8 20 57 0,0
06.06.2020 07:00:00 10,9 5,0 7,9 16 9 31 17 WNW 1000,3 20 37 0,0
06.06.2020 06:00:00 10,8 5,1 7,2 16 9 33 18 WNW 999,7 20 0 0,0
06.06.2020 05:00:00 10,1 6,8 8,0 18 10 40 22 W 998,9 16 0 2,0
06.06.2020 04:00:00 11,7 6,6 10,6 18 10 41 22 WNW 999,3 59 0 0,0
06.06.2020 03:00:00 13,4 4,5 11,8 16 9 35 19 NW 999,1 60 0 0,0
06.06.2020 02:00:00 13,0 9,4 9,7 15 8 27 14 WSW 998,9 20 0 0,0
06.06.2020 01:00:00 12,6 8,9 10,2 6 3 28 15 W 999,0 19 0 0,0
06.06.2020 00:00:00 13,4 9,4 11,5 15 8 39 21 WNW 999,0 20 0 0,0
05.06.2020 23:00:00 13,6 9,0 12,1 19 10 46 25 W 998,9 48 0 0,0
05.06.2020 22:00:00 13,5 9,3 12,5 21 11 47 25 W 998,5 19 0 0,0
05.06.2020 21:00:00 13,5 9,2 12,8 23 12 50 27 W 998,6 20 8 0,0
05.06.2020 20:00:00 13,9 9,1 13,4 23 13 47 26 W 998,7 20 8 0,0
05.06.2020 19:00:00 13,8 8,4 12,4 25 14 50 27 W 998,4 17 41 0,0
05.06.2020 18:00:00 13,2 9,3 8,5 15 8 50 27 W 998,3 40 1 3,9
05.06.2020 17:00:00 13,6 7,4 14,8 18 10 50 27 NW 998,0 22 9 0,0
05.06.2020 16:00:00 15,4 7,9 17,2 29 15 60 33 W 997,4 12 21 0,0
05.06.2020 15:00:00 16,0 7,5 17,5 26 14 56 31 W 997,0 13 26 0,0
05.06.2020 14:00:00 15,5 7,0 18,5 26 14 54 29 W 996,4 7 18 0,0
05.06.2020 13:00:00 15,6 4,6 20,3 28 15 57 31 WNW 996,1 8 56 0,0
05.06.2020 12:00:00 15,0 6,5 18,4 29 16 51 28 W 995,7 13 46 0,0
05.06.2020 11:00:00 14,6 7,4 18,4 23 13 47 25 WNW 995,3 19 51 0,0
05.06.2020 10:00:00 14,1 10,1 12,0 21 12 48 26 WNW 995,5 29 21 0,2
05.06.2020 09:00:00 12,2 10,8 11,9 22 12 40 22 W 995,5 8 0 0,4
05.06.2020 08:00:00 12,4 10,8 11,9 16 9 35 19 WSW 995,9 18 0 0,2
05.06.2020 07:00:00 12,5 10,0 11,6 18 10 39 21 WSW 996,6 43 0 0,0
05.06.2020 06:00:00 12,5 10,2 11,5 22 12 42 23 W 997,3 19 0 0,2
05.06.2020 05:00:00 12,6 9,8 11,5 18 10 35 19 W 998,0 49 0 0,0
05.06.2020 04:00:00 12,9 8,4 11,8 14 8 27 15 W 998,7 60 0 0,0
05.06.2020 03:00:00 13,0 8,7 11,7 13 7 26 14 W 999,3 60 0 0,0
05.06.2020 02:00:00 12,6 9,6 10,8 11 6 20 11 W 1000,0 54 0 0,0
05.06.2020 01:00:00 12,1 8,8 10,1 11 6 19 10 W 1000,6 60 0 0,0
05.06.2020 00:00:00 11,0 9,4 9,5 6 4 10 5 SW 1001,5 32 0 0,0
04.06.2020 23:00:00 10,9 8,8 9,8 8 4 28 15 NNE 1001,7 59 0 0,2
04.06.2020 22:00:00 13,8 9,4 13,0 11 6 21 11 NW 1001,4 54 0 0,0
04.06.2020 21:00:00 13,8 8,6 13,4 10 5 22 12 W 1001,6 60 0 0,0
04.06.2020 20:00:00 14,1 7,6 14,3 11 6 22 12 W 1001,5 59 6 0,0
04.06.2020 19:00:00 15,6 4,6 17,5 16 8 26 14 NNW 1001,4 20 57 0,0
04.06.2020 18:00:00 15,4 6,9 17,8 17 9 29 15 NW 1001,4 20 25 0,0
04.06.2020 17:00:00 15,0 7,5 15,0 18 10 32 18 NNW 1001,8 54 12 0,0
04.06.2020 16:00:00 13,4 8,9 14,0 16 9 34 18 N 1002,0 33 0 0,0
04.06.2020 15:00:00 13,9 9,5 13,8 15 8 29 16 N 1001,8 42 0 0,0
04.06.2020 14:00:00 13,3 10,8 12,9 13 7 29 16 N 1002,0 49 0 0,0
04.06.2020 13:00:00 12,4 11,3 12,2 21 11 35 19 N 1002,1 13 0 0,2
04.06.2020 12:00:00 12,3 11,2 12,3 24 13 37 20 N 1002,0 8 0 0,4
04.06.2020 11:00:00 12,9 11,1 12,3 18 10 32 17 N 1001,8 36 0 0,0
04.06.2020 10:00:00 12,9 10,8 12,0 21 11 35 19 N 1002,0 8 0 0,0
04.06.2020 09:00:00 12,8 11,0 12,1 16 8 23 12 N 1002,0 17 0 0,0
04.06.2020 08:00:00 13,5 10,1 12,7 14 8 28 15 N 1001,8 20 0 0,0
04.06.2020 07:00:00 12,9 10,3 12,2 10 5 19 10 N 1001,9 20 0 0,0
04.06.2020 06:00:00 12,7 9,9 11,9 12 7 24 13 N 1002,0 30 0 0,0
04.06.2020 05:00:00 12,9 9,7 12,3 14 8 28 15 N 1002,5 32 0 0,0
04.06.2020 04:00:00 12,9 10,1 12,5 13 7 29 16 N 1002,7 20 0 0,0
04.06.2020 03:00:00 13,0 9,8 12,4 11 6 34 18 NNE 1003,3 33 0 0,0
04.06.2020 02:00:00 13,2 9,8 12,3 18 10 33 18 NNE 1003,9 42 0 0,0
04.06.2020 01:00:00 13,1 9,9 12,2 9 5 33 18 NNE 1004,1 45 0 0,0
04.06.2020 00:00:00 13,3 10,1 12,5 14 7 35 19 NNE 1004,4 58 0 0,0
03.06.2020 23:00:00 13,6 9,8 12,8 16 9 42 23 NNE 1004,8 60 0 0,0
03.06.2020 22:00:00 14,0 10,0 13,5 21 12 42 23 NE 1004,8 59 11 0,0
03.06.2020 21:00:00 15,4 10,4 15,3 20 11 37 20 NE 1004,6 24 43 0,0
03.06.2020 20:00:00 16,7 9,4 17,0 21 11 40 21 NNE 1004,6 17 0 0,0
03.06.2020 19:00:00 18,4 8,4 19,4 24 13 37 20 N 1004,7 20 26 0,0
03.06.2020 18:00:00 19,8 8,5 20,9 23 13 36 19 N 1005,0 20 41 0,0
03.06.2020 17:00:00 21,8 7,2 23,8 21 11 34 18 N 1005,2 20 45 0,0
03.06.2020 16:00:00 23,0 8,3 25,9 23 12 39 21 N 1005,5 19 60 0,0
03.06.2020 15:00:00 22,3 9,8 34,7 29 15 40 21 NNW 1005,8 20 58 0,0
03.06.2020 14:00:00 22,2 11,6 36,1 29 16 36 19 NNW 1006,2 20 57 0,0
03.06.2020 13:00:00 22,3 11,7 40,9 16 9 26 14 NW 1006,8 19 60 0,0
03.06.2020 12:00:00 21,5 12,3 27,2 10 5 16 9 NNW 1007,2 20 56 0,0
03.06.2020 11:00:00 19,2 12,0 21,6 8 5 11 6 NNW 1007,8 19 12 0,0
03.06.2020 10:00:00 17,6 10,2 19,5 3 2 11 6 NNW 1008,3 20 10 0,0
03.06.2020 09:00:00 16,0 11,4 17,0 10 5 12 6 NNW 1008,8 20 24 0,0
03.06.2020 08:00:00 15,6 11,4 9,9 3 1 7 4 SE 1009,1 19 60 0,0
03.06.2020 07:00:00 11,1 9,2 8,1 5 3 9 5 SSE 1009,4 17 30 0,0
03.06.2020 06:00:00 10,4 8,5 7,6 7 4 10 6 SSE 1009,8 17 0 0,0
03.06.2020 05:00:00 10,9 8,5 7,0 9 5 11 6 SSE 1010,2 35 0 0,0
03.06.2020 04:00:00 11,5 8,4 5,8 7 4 10 5 SSE 1011,0 59 0 0,0
03.06.2020 03:00:00 12,0 8,7 6,1 3 2 5 3 SSE 1011,8 60 0 0,0
03.06.2020 02:00:00 12,5 9,0 7,0 0 0 14 7 N 1012,4 58 0 0,0
03.06.2020 01:00:00 14,3 9,5 7,9 4 2 7 4 SSE 1012,7 60 0 0,0
03.06.2020 00:00:00 14,8 8,9 8,4 2 1 4 2 S 1013,4 43 0 0,0
02.06.2020 23:00:00 16,5 8,9 9,5 0 0 5 3 N 1013,8 40 0 0,0
02.06.2020 22:00:00 19,0 7,7 13,4 2 1 16 8 NW 1014,2 20 20 0,0
02.06.2020 21:00:00 21,1 7,3 17,3 10 5 18 10 NE 1014,3 55 57 0,0
02.06.2020 20:00:00 23,5 8,7 20,9 11 6 23 12 N 1014,5 23 46 0,0
02.06.2020 19:00:00 23,3 9,3 23,3 16 9 27 15 NW 1014,9 8 46 0,0
02.06.2020 18:00:00 24,8 8,3 30,9 18 10 28 15 NW 1015,6 6 54 0,0
02.06.2020 17:00:00 24,6 7,7 33,2 23 13 35 19 NW 1016,2 6 52 0,0
02.06.2020 16:00:00 24,9 9,2 33,8 22 12 35 19 NNW 1016,8 7 42 0,0
02.06.2020 15:00:00 24,8 11,4 40,9 28 15 36 19 NW 1017,2 9 60 0,0
02.06.2020 14:00:00 24,2 13,4 45,3 21 12 33 18 NW 1017,6 15 60 0,0
02.06.2020 13:00:00 25,5 12,3 35,7 12 7 22 12 N 1018,1 20 60 0,0
02.06.2020 12:00:00 24,2 12,5 29,2 10 5 22 12 N 1018,5 16 60 0,0
02.06.2020 11:00:00 23,1 11,5 25,0 9 5 18 10 NE 1018,8 16 60 0,0
02.06.2020 10:00:00 21,1 12,2 19,9 7 4 14 8 NE 1019,0 32 60 0,0
02.06.2020 09:00:00 19,5 11,5 15,9 10 6 15 8 NE 1019,1 41 60 0,0
02.06.2020 08:00:00 17,6 11,4 12,2 4 2 13 7 N 1019,1 20 60 0,0
02.06.2020 07:00:00 15,1 11,1 8,7 4 2 15 8 NNW 1019,2 20 40 0,0
02.06.2020 06:00:00 12,6 9,2 8,4 4 2 12 7 SW 1019,2 40 0 0,0
02.06.2020 05:00:00 14,1 9,3 8,8 3 2 11 6 W 1019,0 44 0 0,0
02.06.2020 04:00:00 14,6 9,2 9,9 3 2 20 11 E 1019,3 55 0 0,0
02.06.2020 03:00:00 15,7 9,4 11,8 9 5 29 15 ENE 1019,7 60 0 0,0
02.06.2020 02:00:00 16,4 8,9 13,7 19 10 35 19 NE 1020,0 60 0 0,0
02.06.2020 01:00:00 17,1 7,7 14,2 21 11 37 20 NE 1020,2 60 0 0,0
02.06.2020 00:00:00 17,1 7,7 14,5 22 12 39 21 NE 1020,1 60 0 0,0
01.06.2020 23:00:00 17,4 8,5 14,8 24 13 44 24 NE 1019,8 60 0 0,0
01.06.2020 22:00:00 18,4 9,7 16,1 24 13 41 22 NE 1019,4 60 19 0,0
01.06.2020 21:00:00 20,5 10,0 18,3 20 11 40 22 NNE 1019,2 9 60 0,0
01.06.2020 20:00:00 22,0 10,8 21,0 22 12 41 22 NNE 1018,9 9 60 0,0
01.06.2020 19:00:00 23,5 11,2 24,8 25 13 39 21 NE 1018,9 6 60 0,0
01.06.2020 18:00:00 24,9 11,1 30,7 23 12 37 20 NE 1019,1 11 60 0,0
01.06.2020 17:00:00 25,6 11,0 35,2 20 11 40 22 NNE 1019,3 12 60 0,0
01.06.2020 16:00:00 26,3 8,7 40,8 21 11 35 19 E 1019,7 15 60 0,0
01.06.2020 15:00:00 25,6 8,6 40,0 16 9 37 20 E 1020,1 18 60 0,0
01.06.2020 14:00:00 24,9 7,1 35,1 16 9 34 18 ENE 1020,3 13 60 0,0
01.06.2020 13:00:00 24,2 9,0 31,2 14 8 35 19 E 1020,8 11 60 0,0
01.06.2020 12:00:00 22,8 7,3 26,8 19 10 31 17 E 1021,0 12 60 0,0
01.06.2020 11:00:00 22,1 7,9 23,6 13 7 21 11 E 1021,2 16 60 0,0
01.06.2020 10:00:00 20,7 8,7 19,0 13 7 22 12 E 1021,2 17 60 0,0
01.06.2020 09:00:00 19,0 8,6 14,8 13 7 19 11 E 1021,1 14 60 0,0
01.06.2020 08:00:00 16,6 7,8 10,9 14 8 22 12 E 1020,9 14 60 0,0
01.06.2020 07:00:00 14,5 7,3 8,8 10 6 19 11 E 1020,8 13 39 0,0
01.06.2020 06:00:00 13,0 7,0 8,2 10 5 17 9 E 1020,6 60 0 0,0
01.06.2020 05:00:00 12,6 7,3 8,2 9 5 22 12 E 1020,7 60 0 0,0
01.06.2020 04:00:00 13,5 7,9 9,9 9 5 23 12 E 1020,8 60 0 0,0
01.06.2020 03:00:00 14,8 8,1 11,5 16 9 28 15 ENE 1021,0 60 0 0,0
01.06.2020 02:00:00 14,8 8,7 10,9 15 8 25 13 NE 1021,1 60 0 0,0
01.06.2020 01:00:00 14,8 8,9 11,3 13 7 24 13 NE 1021,1 60 0 0,0
01.06.2020 00:00:00 15,1 9,0 12,0 15 8 27 15 NE 1021,1 60 0 0,0
31.05.2020 23:00:00 15,9 8,9 12,9 16 8 27 15 NE 1021,0 60 0 0,0
31.05.2020 22:00:00 16,8 8,5 14,1 18 10 37 20 NE 1020,6 60 18 0,0
31.05.2020 21:00:00 18,7 8,1 16,8 19 10 39 21 NE 1020,4 10 60 0,0
31.05.2020 20:00:00 20,2 7,2 19,3 23 12 40 21 NE 1020,0 9 60 0,0
31.05.2020 19:00:00 21,4 7,2 22,6 25 14 44 24 NE 1019,8 8 60 0,0
31.05.2020 18:00:00 21,9 8,0 28,0 27 14 42 23 NNE 1019,9 9 60 0,0
31.05.2020 17:00:00 22,5 7,8 29,1 29 15 45 24 NNE 1019,9 13 53 0,0

tt = temperature
td = dewpoint
tt 5cm = temperature 5cm
ff = wind speed
fx = gusts
dd = wind direction
ppp = reduced air pressure
vv = visibility
sd = sunshine duration
rr = precipitation

Next stations